Regional Weather Roundup
Issued by NWS

Home | Current Version | Previous Version | Text Only | Print | Product List | Glossary On
Versions: 1 2 3 4 5 6 7 8 9 10 11 12 13 14 15 16 17 18 19 20 21 22 23 24 25 26 27 28 29 30 31 32 33 34 35 36 37 38 39 40 41 42 43 44 45 46 47 48 49 50
000
ASUS44 KLIX 311710
RWRLA
LOUISIANA WEATHER ROUNDUP
NATIONAL WEATHER SERVICE NEW ORLEANS LA
1200 PM CDT FRI OCT 31 2014

NOTE: "FAIR" INDICATES FEW OR NO CLOUDS BELOW 12,000 FEET WITH NO
      SIGNIFICANT WEATHER AND/OR OBSTRUCTIONS TO VISIBILITY.
      SKY/WX - SKY CONDITION AND SIGNIFICANT WEATHER.
      TMP - AIR TEMPERATURE.    DP   - DEWPOINT TEMPERATURE.
      RH  - RELATIVE HUMIDITY.  PRES - PRESSURE.
      HX  - HEAT INDEX.         WCI  - WIND CHILL INDEX.

*  THESE STATIONS ARE NOT NWS OR FAA STATIONS AND ARE NOT UNDER
   NWS QUALITY CONTROL.

LAZ040-048-061>063-065-066-069-311800-
SOUTHEAST LOUISIANA

CITY           SKY/WX    TMP DP  RH WIND       PRES   REMARKS
N.O. AUDUBON   NOT AVBL
N.O. INTL ARPT SUNNY     73  48  41 NW13      30.05F
N.O. LAKEFRONT SUNNY     71  53  52 NW14      30.05F
N.O. DOWNTOWN* FAIR      73  46  38 NW7       30.05F
SLIDELL        SUNNY     74  48  39 VRB7      30.02F
BATON ROUGE    SUNNY     71  44  37 NW10G20   30.08F
BOOTHVILLE     SUNNY     71  49  45 NW12      30.06S
BELLE CHASSE   SUNNY     74  45  35 NW9       30.04F
BOGALUSA*        N/A     74  47  38 N12G17    30.05S
NEW ROADS*     FAIR      70  48  45 NW13      30.11R
GONZALES*      FAIR      72  45  38 NW12G18   30.07F
HAMMOND*       SUNNY     73  43  33 NW12G20   30.07S
HOUMA*         SUNNY     73  48  40 NW9       30.07F
PORT FOURCHON* SUNNY     72  50  46 NW12      30.10F

$$

LAZ041-044-053-054-311800-
SOUTHWEST LOUISIANA

CITY           SKY/WX    TMP DP  RH WIND       PRES   REMARKS
LAKE CHARLES   SUNNY     73  46  38 N15       30.14S
LAFAYETTE      SUNNY     73  44  35 N13       30.11F
PATTERSON      SUNNY     72  52  49 NW9       30.11F
SALT POINT       N/A     73  52  47 NW7       30.08F
NEW IBERIA     SUNNY     74  46  36 N13       30.11F
CHENAULT AIRPK NOT AVBL

$$

LAZ027-028-311800-
CENTRAL LOUISIANA

CITY           SKY/WX    TMP DP  RH WIND       PRES   REMARKS
FORT POLK      SUNNY     68  46  46 N10G17    30.15S
ALEXANDRIA INT SUNNY     70  45  40 N13G22    30.13S
ALEXANDRIA     SUNNY     68  46  45 N8        30.13F

$$

LAZ001-002-311800-
NORTHWEST LOUISIANA

CITY           SKY/WX    TMP DP  RH WIND       PRES   REMARKS
SHREVEPORT     SUNNY     67  45  45 NE16      30.20S
BARKSDALE AFB  SUNNY     67  44  43 N14G21    30.20S
DTN SHREVEPORT SUNNY     66  43  43 NE13G20   30.21S

$$

LAZ014-016-311800-
NORTHEAST LOUISIANA

CITY           SKY/WX    TMP DP  RH WIND       PRES   REMARKS
MONROE         SUNNY     67  47  48 N18       30.15S
TALLULAH       SUNNY     67  47  48 N15G22    30.12R

$$




USA.gov is the U.S. government's official web portal to all federal, state and local government web resources and services.